TimeMDT,TemperatureF,Dew PointF,Humidity,Sea Level PressureIn,VisibilityMPH,Wind Direction,Wind SpeedMPH,Gust SpeedMPH,PrecipitationIn,Events,Conditions,WindDirDegrees,DateUTC
12:03 AM,33.8,33.8,100,30.42,10.0,Calm,Calm,-,N/A,,Clear,0,2013-09-24 06:03:00
12:23 AM,33.8,32.0,93,30.42,10.0,Calm,Calm,-,N/A,,Clear,0,2013-09-24 06:23:00
12:43 AM,33.8,32.0,93,30.42,10.0,Calm,Calm,-,N/A,,Clear,0,2013-09-24 06:43:00
1:03 AM,33.8,32.0,93,30.42,10.0,Calm,Calm,-,N/A,,Clear,0,2013-09-24 07:03:00
1:23 AM,33.8,32.0,93,30.42,10.0,Calm,Calm,-,N/A,,Clear,0,2013-09-24 07:23:00
1:43 AM,33.8,32.0,93,30.42,10.0,Calm,Calm,-,N/A,,Clear,0,2013-09-24 07:43:00
2:03 AM,33.8,32.0,93,30.43,10.0,Calm,Calm,-,N/A,,Clear,0,2013-09-24 08:03:00
2:23 AM,33.8,32.0,93,30.43,10.0,Calm,Calm,-,N/A,,Clear,0,2013-09-24 08:23:00
2:43 AM,32.0,32.0,100,30.43,10.0,Calm,Calm,-,N/A,,Clear,0,2013-09-24 08:43:00
3:03 AM,32.0,32.0,100,30.43,10.0,Calm,Calm,-,N/A,,Clear,0,2013-09-24 09:03:00
3:23 AM,32.0,32.0,100,30.42,10.0,Calm,Calm,-,N/A,,Clear,0,2013-09-24 09:23:00
3:43 AM,33.8,32.0,93,30.43,10.0,SW,3.5,-,N/A,,Clear,220,2013-09-24 09:43:00
4:03 AM,32.0,32.0,100,30.43,10.0,Calm,Calm,-,N/A,,Clear,0,2013-09-24 10:03:00
4:23 AM,33.8,32.0,93,30.42,10.0,Calm,Calm,-,N/A,,Clear,0,2013-09-24 10:23:00
4:42 AM,33.8,30.2,87,30.42,10.0,Calm,Calm,-,N/A,,Clear,0,2013-09-24 10:42:00
5:03 AM,33.8,30.2,87,30.42,10.0,Calm,Calm,-,N/A,,Clear,0,2013-09-24 11:03:00
5:23 AM,33.8,30.2,87,30.42,10.0,Calm,Calm,-,N/A,,Clear,0,2013-09-24 11:23:00
5:42 AM,33.8,30.2,87,30.42,10.0,Calm,Calm,-,N/A,,Clear,0,2013-09-24 11:42:00
6:02 AM,33.8,30.2,87,30.42,10.0,Calm,Calm,-,N/A,,Clear,0,2013-09-24 12:02:00
6:22 AM,33.8,30.2,87,30.42,10.0,Calm,Calm,-,N/A,,Clear,0,2013-09-24 12:22:00
6:43 AM,33.8,30.2,87,30.43,10.0,Calm,Calm,-,N/A,,Clear,0,2013-09-24 12:43:00
7:03 AM,33.8,28.4,81,30.43,10.0,Calm,Calm,-,N/A,,Clear,0,2013-09-24 13:03:00
7:23 AM,33.8,28.4,81,30.43,10.0,Calm,Calm,-,N/A,,Clear,0,2013-09-24 13:23:00
7:43 AM,33.8,28.4,81,30.43,10.0,Calm,Calm,-,N/A,,Clear,0,2013-09-24 13:43:00
8:02 AM,33.8,28.4,81,30.43,10.0,Calm,Calm,-,N/A,,Clear,0,2013-09-24 14:02:00
8:23 AM,35.6,28.4,75,30.44,10.0,Calm,Calm,-,N/A,,Clear,0,2013-09-24 14:23:00
8:43 AM,35.6,28.4,75,30.44,10.0,SSW,3.5,-,N/A,,Clear,210,2013-09-24 14:43:00
9:03 AM,35.6,28.4,75,30.44,10.0,Calm,Calm,-,N/A,,Clear,0,2013-09-24 15:03:00
9:23 AM,37.4,28.4,70,30.44,10.0,Calm,Calm,-,N/A,,Clear,0,2013-09-24 15:23:00
9:43 AM,37.4,30.2,75,30.45,10.0,Calm,Calm,-,N/A,,Clear,0,2013-09-24 15:43:00
10:03 AM,37.4,30.2,75,30.45,10.0,Calm,Calm,-,N/A,,Clear,0,2013-09-24 16:03:00
10:22 AM,39.2,32.0,75,30.45,10.0,Calm,Calm,-,N/A,,Clear,0,2013-09-24 16:22:00
10:43 AM,41.0,30.2,65,30.45,10.0,SSW,3.5,-,N/A,,Clear,210,2013-09-24 16:43:00
10:54 AM,42.8,32.0,66,30.45,10.0,Calm,Calm,-,N/A,,Clear,0,2013-09-24 16:54:00
11:14 AM,44.6,32.0,61,30.45,10.0,Calm,Calm,-,N/A,,Clear,0,2013-09-24 17:14:00
11:34 AM,46.4,32.0,57,30.44,10.0,Calm,Calm,-,N/A,,Clear,0,2013-09-24 17:34:00
11:53 AM,46.4,32.0,57,30.44,10.0,Calm,Calm,-,N/A,,Clear,0,2013-09-24 17:53:00
12:14 PM,46.4,33.8,62,30.44,10.0,Calm,Calm,-,N/A,,Clear,0,2013-09-24 18:14:00
12:34 PM,46.4,37.4,71,30.43,10.0,Calm,Calm,-,N/A,,Clear,0,2013-09-24 18:34:00
12:54 PM,48.2,35.6,62,30.42,10.0,Calm,Calm,-,N/A,,Clear,0,2013-09-24 18:54:00
1:14 PM,50.0,37.4,62,30.42,10.0,Calm,Calm,-,N/A,,Clear,0,2013-09-24 19:14:00
1:34 PM,50.0,39.2,66,30.41,10.0,Calm,Calm,-,N/A,,Clear,0,2013-09-24 19:34:00
1:53 PM,51.8,37.4,58,30.40,10.0,SW,3.5,-,N/A,,Clear,230,2013-09-24 19:53:00
2:13 PM,51.8,35.6,54,30.39,10.0,Calm,Calm,-,N/A,,Clear,0,2013-09-24 20:13:00
2:34 PM,51.8,37.4,58,30.39,10.0,Calm,Calm,-,N/A,,Clear,0,2013-09-24 20:34:00
2:54 PM,53.6,37.4,54,30.39,10.0,Calm,Calm,-,N/A,,Clear,0,2013-09-24 20:54:00
3:14 PM,51.8,35.6,54,30.39,10.0,Calm,Calm,-,N/A,,Clear,0,2013-09-24 21:14:00
3:35 PM,53.6,37.4,54,30.38,10.0,Calm,Calm,-,N/A,,Clear,0,2013-09-24 21:35:00
3:55 PM,53.6,39.2,58,30.37,10.0,Calm,Calm,-,N/A,,Clear,0,2013-09-24 21:55:00
4:13 PM,51.8,35.6,54,30.37,10.0,Calm,Calm,-,N/A,,Clear,0,2013-09-24 22:13:00
4:35 PM,53.6,35.6,51,30.36,10.0,Calm,Calm,-,N/A,,Clear,0,2013-09-24 22:35:00
4:55 PM,51.8,35.6,54,30.36,10.0,Calm,Calm,-,N/A,,Clear,0,2013-09-24 22:55:00
5:15 PM,50.0,33.8,54,30.35,10.0,Calm,Calm,-,N/A,,Clear,0,2013-09-24 23:15:00
5:35 PM,50.0,32.0,50,30.35,10.0,Calm,Calm,-,N/A,,Clear,0,2013-09-24 23:35:00
5:54 PM,48.2,30.2,50,30.34,10.0,Calm,Calm,-,N/A,,Clear,0,2013-09-24 23:54:00
6:15 PM,46.4,24.8,43,30.33,10.0,Calm,Calm,-,N/A,,Clear,0,2013-09-25 00:15:00
6:35 PM,44.6,23.0,43,30.32,10.0,Calm,Calm,-,N/A,,Clear,0,2013-09-25 00:35:00
6:54 PM,42.8,23.0,46,30.31,10.0,Calm,Calm,-,N/A,,Clear,0,2013-09-25 00:54:00
7:15 PM,37.4,28.4,70,30.29,10.0,SSW,3.5,-,N/A,,Clear,210,2013-09-25 01:15:00
7:35 PM,37.4,28.4,70,30.29,10.0,Calm,Calm,-,N/A,,Clear,0,2013-09-25 01:35:00
7:54 PM,39.2,28.4,65,30.29,10.0,SSW,4.6,-,N/A,,Clear,210,2013-09-25 01:54:00
8:15 PM,42.8,24.8,49,30.29,10.0,SSW,4.6,-,N/A,,Clear,210,2013-09-25 02:15:00
8:33 PM,42.8,23.0,46,30.30,10.0,SW,4.6,-,N/A,,Clear,220,2013-09-25 02:33:00
8:55 PM,42.8,24.8,49,30.30,10.0,SSW,5.8,-,N/A,,Clear,210,2013-09-25 02:55:00
9:15 PM,42.8,26.6,53,30.29,10.0,SSW,3.5,-,N/A,,Clear,210,2013-09-25 03:15:00
9:34 PM,41.0,26.6,57,30.28,10.0,SSW,3.5,-,N/A,,Clear,200,2013-09-25 03:34:00
9:54 PM,41.0,28.4,61,30.29,10.0,SSW,3.5,-,N/A,,Clear,210,2013-09-25 03:54:00
10:15 PM,41.0,28.4,61,30.29,10.0,South,3.5,-,N/A,,Clear,190,2013-09-25 04:15:00
10:35 PM,41.0,28.4,61,30.28,10.0,Calm,Calm,-,N/A,,Clear,0,2013-09-25 04:35:00
10:55 PM,41.0,28.4,61,30.27,10.0,SSW,3.5,-,N/A,,Clear,200,2013-09-25 04:55:00
11:14 PM,41.0,26.6,57,30.26,10.0,Calm,Calm,-,N/A,,Clear,0,2013-09-25 05:14:00
11:34 PM,41.0,26.6,57,30.26,10.0,South,3.5,-,N/A,,Clear,170,2013-09-25 05:34:00
11:55 PM,41.0,26.6,57,30.25,10.0,Calm,Calm,-,N/A,,Clear,0,2013-09-25 05:55:00